User: anonymous   Login
Location: Unspecified
(0.0000°N, 0.0000°E)
Time: 21:46:27
(UTC+00:00)
Language:

AL-FARABI 1 - Orbit

View from above orbital plane
View from above orbital plane
View from above satellite
View from above satellite

Ground track
Ground track

The orbit data is extracted from the following two-line orbital elements,

1 42016U 17008BW  18048.88296156 +.00001646 +00000-0 +70872-4 0  9990
2 42016 097.4636 114.5832 0008144 082.4876 277.7286 15.24019168055877
Epoch (UTC): 17 February 2018 21:11:27
Eccentricity: 0.0008144
inclination: 97.4636°
perigee height: 488 km
apogee height: 499 km
right ascension of ascending node: 114.5832°
argument of perigee: 82.4876°
revolutions per day: 15.24019168
mean anomaly at epoch: 277.7286°
orbit number at epoch: 5587

The dashed part of the orbit path shows where the satellite is in the earth's shadow,  

DLR